Location: Table Mountain
(47.2500°N, 120.5778°W)
Time: 07:41:51
(UTC-08:00)

N. Korean satellite - Pass Details

Date: 16 October 2017
Orbit: 461 x 513 km, 97.2° (Epoch: 11 December)

Event Time Altitude Azimuth Distance (km) Brightness Sun altitude
Rises 18:48:17 0° 160° (SSE) 2,529 10.1 -6.9°
Reaches altitude 10° 18:50:21 10° 158° (SSE) 1,646 9.1 -7.2°
Maximum altitude 18:53:52 69° 75° (ENE) 510 6.4 -7.8°
Drops below altitude 10° 18:57:21 10° 352° (N) 1,635 9.3 -8.4°
Sets 18:59:24 0° 350° (N) 2,510 10.3 -8.8°
